Location: Unspecified
(58.9933°N, 5.6375°E)
Time: 17:52:20
(UTC+01:00)

CZ-3 Stage 3 - Visible Passes

Search period start: 26 February 2017 00:00
Search period end: 08 March 2017 00:00
Orbit: 410 x 34791 km, 30.6° (Epoch: 24 February)

Date Brightness Start Highest point End Pass type
(mag) Time Alt. Az. Time Alt. Az. Time Alt. Az.
26 Feb 7.9 20:20:55 10° SSE 02:07:13 49° SE 05:16:52 10° SE visible
27 Feb 8.9 18:40:12 10° ENE 22:58:06 22° E 01:03:31 10° E visible
28 Feb 8.8 03:36:05 10° W 05:51:21 32° W 11:08:01 10° W visible
28 Feb 8.1 23:42:05 10° SW 02:55:53 55° SSW 08:42:49 10° SSW visible
01 Mar 7.8 20:11:17 10° SSE 01:54:56 48° SE 05:07:28 10° SE visible
02 Mar 8.9 18:28:04 10° ENE 22:47:15 22° E 00:53:09 10° E visible
03 Mar 8.8 03:26:34 10° W 05:40:17 33° W 10:54:58 10° W visible
03 Mar 8.1 23:32:52 10° SW 02:42:23 55° SSW 08:33:06 10° SSW visible
04 Mar 7.8 20:01:42 10° SSE 01:42:37 48° SE 04:58:02 10° SE visible
05 Mar 8.9 18:16:02 10° ENE 22:36:24 21° E 00:42:41 10° E visible
06 Mar 8.8 03:17:04 10° W 05:29:11 33° W 10:41:48 10° W visible
06 Mar 8.1 23:23:39 10° SW 02:28:51 55° SSW 08:23:18 10° SSW visible
